Weather History for KVSH - March, 2013

Change the Weather History Date:

Wednesday, March 20, 2013

  Actual Average (KMAI) Record (KMAI)
Temperature  
Mean Temperature 63 °F 61 °F  
Max Temperature 69 °F 73 °F 88 °F (2011)
Min Temperature 57 °F 49 °F 42 °F (2001)
Degree Days  
Heating Degree Days 2    
Month to date heating degree days  
Since 1 July heating degree days  
Cooling Degree Days 0    
Month to date cooling degree days  
Year to date cooling degree days  
Growing Degree Days 13 (Base 50)    
Moisture  
Dew Point 40 °F    
Average Humidity 45    
Maximum Humidity 83    
Minimum Humidity 27    
Precipitation  
Precipitation 0.00 in 0.20 in 1.15 in (2003)
Month to date precipitation 3.26  
Year to date precipitation 13.24  
Sea Level Pressure  
Sea Level Pressure 30.07 in    
Wind  
Wind Speed 6 mph (NNE)    
Max Wind Speed 13 mph    
Max Gust Speed 20 mph    
Visibility 10 miles    
Events      
T = Trace of Precipitation, MM = Missing Value Source: NWS Daily Summary

Daily Weather History Graph

Daily Weather History Graph

Search for Another Location

Airport or City:

Trip Planner

Search our weather history database for the weather conditions in past years. The results will help you decide how hot, cold, wet, or windy it might be!

Date:

Astronomy

Mar. 20, 2013 Rise Set
Actual Time 6:45 AM CDT 6:54 PM CDT
Civil Twilight 6:21 AM CDT 7:18 PM CDT
Nautical Twilight 5:53 AM CDT 7:46 PM CDT
Astronomical Twilight 5:25 AM CDT 8:14 PM CDT
Moon 12:49 PM CDT (3/20) 2:03 AM CDT (3/20)
Length of Visible Light 12h 56m
Length of Day
12h 08m
First Quarter, 59% of the Moon is Illuminated
Mar 20
First Quarter
Mar 27
Full
Apr 2
Last Quarter
Apr 10
New
Apr 18
First Quarter

Hourly Weather History & Observations

Time (CDT) Temp. Dew Point Humidity Pressure Visibility Wind Dir Wind Speed Gust Speed Precip Events Conditions
12:15 AM 64.4 °F 57.2 °F 77% 30.01 in 10.0 mi Calm Calm - N/A   Overcast
12:35 AM 64.4 °F 57.2 °F 77% 30.01 in 10.0 mi Calm Calm - N/A   Overcast
12:55 AM 64.4 °F 57.2 °F 77% 30.01 in 10.0 mi NNE 6.9 mph - N/A   Overcast
1:15 AM 64.4 °F 59.0 °F 83% 30.00 in 10.0 mi NNE 4.6 mph - N/A   Overcast
1:35 AM 64.4 °F 59.0 °F 83% 30.00 in 10.0 mi NNE 8.1 mph - N/A   Overcast
1:55 AM 64.4 °F 59.0 °F 83% 30.00 in 10.0 mi NNE 5.8 mph - N/A   Mostly Cloudy
2:15 AM 62.6 °F 57.2 °F 82% 30.00 in 10.0 mi NNE 5.8 mph - N/A   Scattered Clouds
2:35 AM 62.6 °F 50.0 °F 63% 30.00 in 10.0 mi NNE 8.1 mph - N/A   Partly Cloudy
2:55 AM 62.6 °F 46.4 °F 55% 30.01 in 10.0 mi North 5.8 mph - N/A   Clear
3:15 AM 62.6 °F 44.6 °F 52% 30.00 in 10.0 mi NNE 6.9 mph - N/A   Clear
3:35 AM 62.6 °F 42.8 °F 48% 29.99 in 10.0 mi NE 5.8 mph - N/A   Clear
3:55 AM 62.6 °F 39.2 °F 42% 29.98 in 10.0 mi ENE 8.1 mph - N/A   Clear
4:15 AM 62.6 °F 37.4 °F 39% 29.98 in 10.0 mi NE 4.6 mph - N/A   Partly Cloudy
4:35 AM 64.4 °F 37.4 °F 37% 29.99 in 10.0 mi ENE 4.6 mph - N/A   Mostly Cloudy
4:55 AM 64.4 °F 37.4 °F 37% 29.99 in 10.0 mi NE 5.8 mph - N/A   Scattered Clouds
5:15 AM 62.6 °F 37.4 °F 39% 30.01 in 10.0 mi NNE 8.1 mph - N/A   Partly Cloudy
5:35 AM 62.6 °F 39.2 °F 42% 30.03 in 10.0 mi NNE 9.2 mph - N/A   Clear
5:55 AM 60.8 °F 37.4 °F 42% 30.03 in 10.0 mi NNE 12.7 mph 19.6 mph N/A   Scattered Clouds
6:15 AM 60.8 °F 37.4 °F 42% 30.07 in 10.0 mi North 6.9 mph - N/A   Partly Cloudy
6:35 AM 60.8 °F 37.4 °F 42% 30.07 in 10.0 mi NE 10.4 mph 16.1 mph N/A   Clear
6:55 AM 60.8 °F 37.4 °F 42% 30.09 in 10.0 mi NE 6.9 mph - N/A   Partly Cloudy
7:15 AM 60.8 °F 37.4 °F 42% 30.10 in 10.0 mi NNE 9.2 mph - N/A   Scattered Clouds
7:35 AM 60.8 °F 37.4 °F 42% 30.10 in 10.0 mi NNE 10.4 mph 16.1 mph N/A   Scattered Clouds
7:55 AM 60.8 °F 37.4 °F 42% 30.11 in 10.0 mi NNE 9.2 mph - N/A   Mostly Cloudy
8:15 AM 60.8 °F 37.4 °F 42% 30.12 in 10.0 mi NNE 10.4 mph 18.4 mph N/A   Mostly Cloudy
8:35 AM 60.8 °F 35.6 °F 39% 30.12 in 10.0 mi NNE 6.9 mph 16.1 mph N/A   Mostly Cloudy
8:55 AM 60.8 °F 37.4 °F 42% 30.13 in 10.0 mi North 9.2 mph 18.4 mph N/A   Mostly Cloudy
9:15 AM 60.8 °F 37.4 °F 42% 30.13 in 10.0 mi NNE 8.1 mph 18.4 mph N/A   Mostly Cloudy
9:35 AM 60.8 °F 37.4 °F 42% 30.12 in 10.0 mi NNE 9.2 mph 17.3 mph N/A   Overcast
9:55 AM 60.8 °F 37.4 °F 42% 30.15 in 10.0 mi North 8.1 mph - N/A   Overcast
10:15 AM 60.8 °F 37.4 °F 42% 30.18 in 10.0 mi North 4.6 mph - N/A   Overcast
10:35 AM 60.8 °F 39.2 °F 45% 30.19 in 10.0 mi North 4.6 mph - N/A   Overcast
10:55 AM 57.2 °F 42.8 °F 59% 30.18 in 10.0 mi North 5.8 mph - N/A   Overcast
11:15 AM 57.2 °F 44.6 °F 63% 30.16 in 10.0 mi NNE 6.9 mph - N/A   Overcast
11:35 AM 57.2 °F 42.8 °F 59% 30.14 in 10.0 mi NE 3.5 mph - N/A   Overcast
11:55 AM 57.2 °F 42.8 °F 59% 30.14 in 10.0 mi SE 5.8 mph - N/A   Overcast
12:15 PM 57.2 °F 41.0 °F 55% 30.15 in 10.0 mi North 6.9 mph - N/A   Mostly Cloudy
12:35 PM 59.0 °F 44.6 °F 59% 30.14 in 10.0 mi NNE 8.1 mph - N/A   Overcast
12:55 PM 59.0 °F 42.8 °F 55% 30.13 in 10.0 mi NNE 8.1 mph - N/A   Scattered Clouds
1:15 PM 60.8 °F 42.8 °F 52% 30.12 in 10.0 mi NNW 5.8 mph - N/A   Clear
1:35 PM 60.8 °F 44.6 °F 55% 30.11 in 10.0 mi NNW 4.6 mph - N/A   Clear
1:55 PM 62.6 °F 42.8 °F 48% 30.10 in 10.0 mi North 5.8 mph - N/A   Clear
2:15 PM 64.4 °F 44.6 °F 49% 30.10 in 10.0 mi NNE 9.2 mph - N/A   Clear
2:35 PM 64.4 °F 44.6 °F 49% 30.09 in 10.0 mi NNW 8.1 mph - N/A   Clear
2:55 PM 64.4 °F 42.8 °F 45% 30.08 in 10.0 mi North 9.2 mph 16.1 mph N/A   Clear
3:15 PM 64.4 °F 42.8 °F 45% 30.07 in 10.0 mi NNW 8.1 mph - N/A   Clear
3:35 PM 66.2 °F 42.8 °F 43% 30.06 in 10.0 mi North 6.9 mph - N/A   Clear
3:55 PM 68.0 °F 39.2 °F 35% 30.05 in 10.0 mi NNE 12.7 mph 17.3 mph N/A   Clear
4:15 PM 68.0 °F 37.4 °F 33% 30.04 in 10.0 mi NNE 9.2 mph 18.4 mph N/A   Clear
4:35 PM 68.0 °F 37.4 °F 33% 30.04 in 10.0 mi North 6.9 mph 17.3 mph N/A   Clear
4:55 PM 68.0 °F 37.4 °F 33% 30.03 in 10.0 mi North 8.1 mph 18.4 mph N/A   Clear
5:15 PM 69.8 °F 33.8 °F 27% 30.03 in 10.0 mi NNE 10.4 mph 18.4 mph N/A   Clear
5:35 PM 69.8 °F 33.8 °F 27% 30.04 in 10.0 mi NNW 8.1 mph 16.1 mph N/A   Clear
5:55 PM 69.8 °F 33.8 °F 27% 30.04 in 10.0 mi North 5.8 mph - N/A   Clear
6:15 PM 68.0 °F 33.8 °F 28% 30.04 in 10.0 mi NNE 12.7 mph 17.3 mph N/A   Clear
6:35 PM 66.2 °F 33.8 °F 30% 30.04 in 10.0 mi NNE 8.1 mph - N/A   Clear
6:55 PM 66.2 °F 35.6 °F 32% 30.04 in 10.0 mi NNE 10.4 mph - N/A   Clear
7:15 PM 66.2 °F 35.6 °F 32% 30.04 in 10.0 mi North 5.8 mph - N/A   Clear
7:35 PM 64.4 °F 33.8 °F 32% 30.05 in 10.0 mi NNE 8.1 mph - N/A   Clear
7:55 PM 64.4 °F 33.8 °F 32% 30.05 in 10.0 mi NNE 9.2 mph - N/A   Clear
8:15 PM 64.4 °F 32.0 °F 30% 30.05 in 10.0 mi NNE 8.1 mph - N/A   Clear
8:35 PM 64.4 °F 30.2 °F 28% 30.05 in 10.0 mi NNE 5.8 mph - N/A   Clear
8:55 PM 62.6 °F 33.8 °F 34% 30.05 in 10.0 mi North 5.8 mph - N/A   Clear
9:15 PM 62.6 °F 33.8 °F 34% 30.06 in 10.0 mi NNE 6.9 mph - N/A   Clear
9:35 PM 62.6 °F 33.8 °F 34% 30.06 in 10.0 mi North 5.8 mph - N/A   Clear
9:55 PM 62.6 °F 33.8 °F 34% 30.06 in 10.0 mi NNE 5.8 mph - N/A   Clear
10:15 PM 62.6 °F 33.8 °F 34% 30.06 in 10.0 mi NNE 4.6 mph - N/A   Clear
10:35 PM 60.8 °F 33.8 °F 36% 30.06 in 10.0 mi NNE 4.6 mph - N/A   Clear
10:55 PM 60.8 °F 33.8 °F 36% 30.07 in 10.0 mi NNE 5.8 mph - N/A   Clear
11:15 PM 60.8 °F 33.8 °F 36% 30.07 in 10.0 mi North 5.8 mph - N/A   Clear
11:35 PM 60.8 °F 32.0 °F 34% 30.08 in 10.0 mi NNE 6.9 mph - N/A   Clear
11:55 PM 60.8 °F 33.8 °F 36% 30.07 in 10.0 mi NNE 6.9 mph - N/A   Clear